This demonstration page uses our WeatherBlox Daily Observations layout. Learn more.

Left ArrowRight Arrow

Hourly Observations for June 10, 2020

Temp ( °F °C ) Dew Point ( °F °C ) Humidity (%) Winds ( mph kmh ) Pressure ( in mb ) Visibility ( mi km ) Precip ( " mm )
12:27 am 00:27 Mostly Cloudy 75 23.9 72 22.2 90 90 S 5 7 29.97 1015 10 16 0.00 0.00
12:53 am 00:53 Partly Cloudy 75 23.9 72 22.2 90 90 S 3 6 29.97 1015 10 16 0.00 0.00
1:44 am 01:44 Mostly Cloudy 74 23.3 71 21.7 91 91 SW 7 11 29.95 1014 10 16 0.00 0.00
1:53 am 01:53 Mostly Cloudy 74 23.3 71 21.7 91 91 SSW 5 7 29.95 1014 10 16 0.00 0.00
2:31 am 02:31 Mostly Cloudy 74 23.3 71 21.7 91 91 S 5 7 29.94 1014 10 16 0.00 0.00
2:53 am 02:53 Cloudy 74 23.3 70 21.1 88 88 SSW 5 7 29.94 1014 10 16 0.00 0.00
3:53 am 03:53 Cloudy 73 22.8 70 21.1 90 90 SW 5 7 29.94 1014 10 16 0.00 0.00
4:33 am 04:33 Cloudy 73 22.8 70 21.1 90 90 SSW 5 7 29.94 1014 10 16 0.00 0.00
4:53 am 04:53 Cloudy 73 22.8 70 21.1 90 90 SSW 6 9 29.94 1014 10 16 0.00 0.00
5:53 am 05:53 Cloudy 73 22.8 71 21.7 94 94 SW 3 6 29.96 1015 7 11 0.00 0.00
6:53 am 06:53 Cloudy 74 23.3 71 21.7 91 91 SSW 3 6 29.98 1015 10 16 0.00 0.00
7:53 am 07:53 Cloudy 75 23.9 71 21.7 88 88 S 6 9 29.97 1015 10 16 0.00 0.00
8:53 am 08:53 Cloudy 76 24.4 72 22.2 88 88 SSW 7 11 29.97 1015 10 16 0.00 0.00
9:53 am 09:53 Cloudy 77 25 72 22.2 85 85 S 6 9 29.98 1015 10 16 0.00 0.00
10:53 am 10:53 Cloudy with Light Rain 79 26.1 73 22.8 82 82 SSW 10 17 29.97 1015 10 16 0.00 0.00
11:53 am 11:53 Cloudy with Rain 79 26.1 73 22.8 82 82 SSW 8 13 29.96 1015 5 8 0.01 0.25
12:17 pm 12:17 Mostly Cloudy with Light Rain 80 26.7 74 23.3 82 82 SSW 9 15 29.95 1014 5 8 0.07 1.78
12:20 pm 12:20 Mostly Cloudy with Heavy Rain 79 26.1 74 23.3 85 85 SSW 10 17 29.95 1014 2 3 0.13 3.30
12:30 pm 12:30 Cloudy with Light Rain 76 24.4 73 22.8 91 91 SW 8 13 29.95 1014 3 5 0.15 3.81
12:53 pm 12:53 Cloudy with Light Rain 77 25 73 22.8 88 88 SSW 7 11 29.96 1015 10 16 0.15 3.81
1:05 pm 13:05 Cloudy with Nearby Thunderstorms 76 24.4 73 22.8 91 91 SSW 12 19 29.94 1014 4 6 0.02 0.51
1:17 pm 13:17 Mostly Cloudy with Light Rain 76 24.4 73 22.8 91 91 S 10 17 29.94 1014 10 16 0.02 0.51
1:53 pm 13:53 Partly Cloudy 78 25.6 74 23.3 87 87 S 10 17 29.96 1015 10 16 0.02 0.51
2:53 pm 14:53 Partly Cloudy 81 27.2 73 22.8 77 77 S 10 17 29.94 1014 10 16 0.00 0.00
3:53 pm 15:53 Mostly Cloudy 84 28.9 73 22.8 70 70 SSW 8 13 29.92 1013 10 16 0.01 0.25
4:38 pm 16:38 Mostly Cloudy with Thunderstorms 84 28.9 73 22.8 70 70 S 9 15 29.89 1012 10 16 0.00 0.00
4:49 pm 16:49 Cloudy with Strong Thunderstorms 75 24 73 23 94 94 SW 13 20 29.94 1014 1 1 0.32 8.13
4:53 pm 16:53 Cloudy with Strong Thunderstorms 75 23.9 73 22.8 94 94 SW 10 17 29.95 1014 1 1 0.42 10.67
4:57 pm 16:57 Cloudy with Strong Thunderstorms 75 23.9 73 22.8 94 94 SW 7 11 29.94 1014 1 2 0.02 0.51
5:03 pm 17:03 Cloudy with Thunderstorms 76 24.4 73 22.8 91 91 SSW 7 11 29.92 1013 3 5 0.03 0.76
5:08 pm 17:08 Cloudy with Nearby Thunderstorms 76 24.4 73 22.8 91 91 SSW 6 9 29.91 1013 6 10 0.03 0.76
5:20 pm 17:20 Mostly Cloudy 77 25 73 22.8 88 88 SW 5 7 29.91 1013 10 16 0.03 0.76
5:53 pm 17:53 Mostly Cloudy with Light Rain 78 25.6 75 23.9 90 90 SSW 9 15 29.93 1013 4 6 0.06 1.52
6:03 pm 18:03 Partly Cloudy 79 26.1 74 23.3 85 85 S 9 15 29.90 1013 10 16 0.00 0.00
6:53 pm 18:53 Mostly Sunny 79 26.1 73 22.8 82 82 SW 7 11 29.91 1013 10 16 0.00 0.00
7:53 pm 19:53 Sunny 79 26.1 73 22.8 82 82 SSW 6 9 29.92 1013 10 16 0.00 0.00
8:36 pm 20:36 Mostly Cloudy 79 26.1 73 22.8 82 82 SSW 5 7 29.92 1013 10 16 0.00 0.00
8:53 pm 20:53 Cloudy 78 25.6 73 22.8 85 85 SSW 8 13 29.93 1014 10 16 0.00 0.00
9:53 pm 21:53 Mostly Cloudy 77 25 72 22.2 85 85 S 5 7 29.95 1014 10 16 0.00 0.00
10:50 pm 22:50 Partly Cloudy 75 24 72 22 89 89 SSW 6 9 29.97 1015 10 16 0.00 0.00
10:53 pm 22:53 Mostly Clear 75 23.9 72 22.2 90 90 SSW 6 9 29.97 1015 10 16 0.00 0.00
11:53 pm 23:53 Mostly Clear 74 23.3 72 22.2 94 94 SSW 5 7 29.98 1015 10 16 0.00 0.00

Powered by AerisWeather